Location: �terpigny
(49.8910°N, 2.9249°E)
Time: 13:12:22
(UTC+00:00)

RS-44 - Pass Details

Date: 08 July 2022
Orbit: 1175 x 1510 km, 82.5° (Epoch: 12 August)

Event Time Altitude Azimuth Distance (km) Brightness Sun altitude
Rises 20:25:25 0° 210° (SSW) 4,440 ? -4.3°
Reaches altitude 10° 20:28:17 10° 216° (SW) 3,510 ? -4.6°
Maximum altitude 20:36:29 50° 290° (WNW) 1,821 ? -5.6°
Drops below altitude 10° 20:45:06 10° 5° (N) 3,678 ? -6.5°
Sets 20:48:13 0° 10° (N) 4,667 ? -6.9°
